Hugo, OK

7:25 AM CST on February 24, 2017 (GMT -0600)
Stamper Municipal

Weather History for KHHW - August, 2013

Change the Weather History Date:

Friday, August 23, 2013

  Actual Average Record
Temperature  
Mean Temperature 89 °F -  
Max Temperature 102 °F 94 °F 102 °F (2013)
Min Temperature 77 °F 69 °F 72 °F (2015)
Cooling Degree Days 24    
Growing Degree Days 39 (Base 50)    
Moisture  
Dew Point 72 °F    
Average Humidity 64    
Maximum Humidity 84    
Minimum Humidity 34    
Precipitation  
Precipitation 0.00 in - - ()
Sea Level Pressure  
Sea Level Pressure 30.00 in    
Wind  
Wind Speed 3 mph (East)    
Max Wind Speed 15 mph    
Max Gust Speed 21 mph    
Visibility 10 miles    
Events Thunderstorm    
Averages and records for this station are not official NWS values.
T = Trace of Precipitation, MM = Missing Value Source: NWS Daily Summary

Daily Weather History Graph

Daily Weather History Graph

Search for Another Location

Airport or City:

Trip Planner

Search our weather history database for the weather conditions in past years. The results will help you decide how hot, cold, wet, or windy it might be!

Date:

Astronomy

Aug. 23, 2013 Rise Set
Actual Time 6:49 AM CDT 7:59 PM CDT
Civil Twilight 6:23 AM CDT 8:25 PM CDT
Nautical Twilight 5:52 AM CDT 8:55 PM CDT
Astronomical Twilight 5:20 AM CDT 9:27 PM CDT
Moon 9:30 PM CDT (8/23) 9:35 AM CDT (8/23)
Length of Visible Light 14h 01m
Length of Day
13h 09m
Waning Gibbous, 91% of the Moon is Illuminated
Aug 23
Waning Gibbous
Aug 28
Last Quarter
Sep 5
New
Sep 12
First Quarter
Sep 19
Full

Hourly Weather History & Observations

Time (CDT) Temp. Heat Index Dew Point Humidity Pressure Visibility Wind Dir Wind Speed Gust Speed Precip Events Conditions
12:15 AM 86.2 °F 91.8 °F 71.4 °F 61% 30.02 in 10.0 mi SE 4.6 mph - N/A   Clear
12:35 AM 86.0 °F 91.5 °F 71.1 °F 61% 30.02 in 10.0 mi SE 4.6 mph - N/A   Clear
12:55 AM 85.5 °F 90.8 °F 71.2 °F 62% 30.02 in 10.0 mi ESE 4.6 mph - N/A   Clear
1:15 AM 84.4 °F 89.7 °F 71.2 °F 65% 30.02 in 10.0 mi East 3.5 mph - N/A   Clear
1:35 AM 83.7 °F 88.6 °F 71.2 °F 66% 30.02 in 10.0 mi Calm Calm - N/A   Clear
1:55 AM 83.3 °F 88.2 °F 71.4 °F 67% 30.01 in 10.0 mi East 3.5 mph - N/A   Clear
2:15 AM 81.7 °F 86.0 °F 71.6 °F 71% 30.01 in 10.0 mi Calm Calm - N/A   Clear
2:35 AM 82.6 °F 87.3 °F 71.6 °F 69% 30.01 in 10.0 mi Calm Calm - N/A   Clear
2:55 AM 82.4 °F 87.2 °F 71.6 °F 70% 30.01 in 10.0 mi Calm Calm - N/A   Clear
3:15 AM 81.0 °F 85.2 °F 71.8 °F 74% 30.01 in 10.0 mi Calm Calm - N/A   Clear
3:35 AM 80.8 °F 85.1 °F 72.3 °F 75% 30.01 in 10.0 mi Calm Calm - N/A   Clear
3:55 AM 81.0 °F 85.4 °F 72.5 °F 75% 30.01 in 10.0 mi Calm Calm - N/A   Clear
4:15 AM 80.1 °F 84.1 °F 72.5 °F 78% 30.01 in 10.0 mi Calm Calm - N/A   Clear
4:35 AM 79.7 °F - 72.3 °F 78% 30.01 in 10.0 mi SE 3.5 mph - N/A   Clear
4:55 AM 79.7 °F - 72.1 °F 78% 30.01 in 10.0 mi Calm Calm - N/A   Clear
5:15 AM 79.7 °F - 72.1 °F 78% 30.01 in 10.0 mi Calm Calm - N/A   Clear
5:35 AM 79.5 °F - 72.1 °F 78% 30.01 in 10.0 mi Calm Calm - N/A   Clear
5:55 AM 78.8 °F - 72.0 °F 79% 30.01 in 10.0 mi ESE 3.5 mph - N/A   Clear
6:15 AM 78.1 °F - 72.1 °F 82% 30.02 in 10.0 mi Calm Calm - N/A   Clear
6:35 AM 77.4 °F - 72.1 °F 84% 30.02 in 10.0 mi East 3.5 mph - N/A   Clear
6:55 AM 77.7 °F - 72.5 °F 84% 30.03 in 10.0 mi Calm Calm - N/A   Clear
7:15 AM 77.7 °F - 72.3 °F 83% 30.03 in 10.0 mi Calm Calm - N/A   Clear
7:35 AM 78.8 °F - 72.5 °F 81% 30.03 in 10.0 mi Calm Calm - N/A   Clear
7:55 AM 79.9 °F - 73.0 °F 80% 30.04 in 10.0 mi Calm Calm - N/A   Clear
8:15 AM 81.0 °F 86.0 °F 73.4 °F 78% 30.04 in 10.0 mi ENE 3.5 mph - N/A   Clear
8:35 AM 82.6 °F 88.6 °F 73.4 °F 74% 30.05 in 10.0 mi ESE 4.6 mph - N/A   Clear
8:55 AM 83.7 °F 90.4 °F 73.6 °F 72% 30.05 in 10.0 mi ESE 4.6 mph - N/A   Clear
9:15 AM 85.1 °F 92.2 °F 73.6 °F 68% 30.05 in 10.0 mi Calm Calm - N/A   Clear
9:35 AM 87.4 °F 95.8 °F 74.1 °F 64% 30.04 in 10.0 mi ESE 3.5 mph - N/A   Clear
9:55 AM 88.3 °F 97.4 °F 74.1 °F 63% 30.04 in 10.0 mi South 3.5 mph - N/A   Clear
10:15 AM 90.3 °F 99.3 °F 73.8 °F 58% 30.04 in 10.0 mi Calm Calm - N/A   Clear
10:35 AM 92.5 °F 101.9 °F 73.8 °F 54% 30.04 in 10.0 mi Calm Calm - N/A   Clear
10:55 AM 93.9 °F 103.4 °F 73.2 °F 51% 30.04 in 10.0 mi Calm Calm - N/A   Clear
11:15 AM 95.2 °F 103.6 °F 72.1 °F 47% 30.04 in 10.0 mi Calm Calm - N/A   Clear
11:35 AM 95.7 °F 104.8 °F 72.5 °F 47% 30.03 in 10.0 mi Calm Calm - N/A   Clear
11:55 AM 97.0 °F 105.5 °F 71.6 °F 44% 30.03 in 10.0 mi South 5.8 mph - N/A   Clear
12:15 PM 98.4 °F 108.0 °F 72.5 °F 43% 30.02 in 10.0 mi Calm Calm - N/A   Scattered Clouds
12:35 PM 97.3 °F 104.9 °F 70.9 °F 42% 30.02 in 10.0 mi South 3.5 mph - N/A   Mostly Cloudy
12:55 PM 99.5 °F 108.1 °F 71.2 °F 40% 30.01 in 10.0 mi ENE 5.8 mph - N/A   Scattered Clouds
1:15 PM 99.0 °F 107.0 °F 70.5 °F 40% 30.00 in 10.0 mi Calm Calm - N/A   Scattered Clouds
1:35 PM 99.7 °F 107.0 °F 69.8 °F 38% 29.99 in 10.0 mi Calm Calm - N/A   Scattered Clouds
1:55 PM 101.1 °F 108.5 °F 69.8 °F 36% 29.99 in 10.0 mi South 3.5 mph - N/A   Clear
2:15 PM 100.9 °F 106.7 °F 68.2 °F 34% 29.97 in 10.0 mi East 4.6 mph - N/A Thunderstorm Clear
2:35 PM 99.3 °F 104.2 °F 67.1 °F 35% 29.98 in 10.0 mi Calm Calm - N/A Thunderstorm Mostly Cloudy
2:55 PM 91.2 °F 97.0 °F 70.3 °F 50% 29.98 in 10.0 mi NNE 10.4 mph 16.1 mph N/A   Overcast
3:15 PM 90.0 °F 95.4 °F 70.3 °F 52% 29.98 in 10.0 mi ENE 15.0 mph 19.6 mph N/A   Overcast
3:35 PM 90.1 °F 94.9 °F 69.1 °F 50% 29.98 in 10.0 mi NE 10.4 mph 20.7 mph N/A   Mostly Cloudy
3:55 PM 87.3 °F 94.0 °F 72.1 °F 61% 29.98 in 10.0 mi ENE 4.6 mph - N/A   Clear
4:15 PM 86.4 °F 92.6 °F 72.0 °F 62% 29.98 in 10.0 mi NNE 4.6 mph - N/A   Mostly Cloudy
4:35 PM 87.1 °F 93.2 °F 71.6 °F 60% 29.98 in 10.0 mi East 4.6 mph - N/A   Mostly Cloudy
4:55 PM 88.5 °F 94.9 °F 71.8 °F 57% 29.97 in 10.0 mi Calm Calm - N/A   Scattered Clouds
5:15 PM 90.3 °F 96.7 °F 71.1 °F 53% 29.97 in 10.0 mi NE 8.1 mph - N/A   Clear
5:35 PM 89.2 °F 95.9 °F 71.6 °F 56% 29.96 in 10.0 mi NNE 3.5 mph - N/A   Clear
5:55 PM 89.1 °F 95.5 °F 71.6 °F 56% 29.96 in 10.0 mi Calm Calm - N/A   Clear
6:15 PM 90.1 °F 97.8 °F 72.5 °F 56% 29.95 in 10.0 mi NNE 4.6 mph - N/A   Clear
6:35 PM 91.9 °F 100.1 °F 72.7 °F 53% 29.95 in 10.0 mi North 3.5 mph - N/A   Clear
6:55 PM 92.3 °F 99.7 °F 72.0 °F 51% 29.95 in 10.0 mi Calm Calm - N/A   Clear
7:15 PM 91.4 °F 99.5 °F 72.5 °F 54% 29.94 in 10.0 mi NNE 4.6 mph - N/A   Clear
7:35 PM 89.8 °F 98.6 °F 73.6 °F 59% 29.95 in 10.0 mi NE 3.5 mph - N/A   Clear
7:55 PM 88.2 °F 96.9 °F 73.9 °F 63% 29.95 in 10.0 mi NE 5.8 mph - N/A   Clear
8:15 PM 86.7 °F 94.6 °F 73.8 °F 65% 29.95 in 10.0 mi NE 4.6 mph - N/A   Clear
8:35 PM 86.0 °F 93.4 °F 73.6 °F 66% 29.96 in 10.0 mi NNE 3.5 mph - N/A   Clear
8:55 PM 84.9 °F 92.1 °F 73.9 °F 69% 29.97 in 10.0 mi NE 3.5 mph - N/A   Clear
9:15 PM 84.2 °F 91.2 °F 73.9 °F 71% 29.98 in 10.0 mi ENE 3.5 mph - N/A   Clear
9:35 PM 83.7 °F 90.7 °F 74.3 °F 73% 29.98 in 10.0 mi Calm Calm - N/A   Clear
9:55 PM 83.3 °F 90.2 °F 74.3 °F 74% 29.99 in 10.0 mi Calm Calm - N/A   Clear
10:15 PM 82.6 °F 89.1 °F 74.5 °F 76% 30.00 in 10.0 mi Calm Calm - N/A   Clear
10:35 PM 82.8 °F 89.8 °F 74.8 °F 77% 30.01 in 10.0 mi Calm Calm - N/A   Clear
10:55 PM 82.0 °F 88.6 °F 74.8 °F 79% 30.01 in 10.0 mi Calm Calm - N/A   Clear
11:15 PM 81.9 °F 88.5 °F 75.2 °F 80% 30.01 in 10.0 mi ENE 3.5 mph - N/A   Clear
11:35 PM 82.6 °F 89.7 °F 75.2 °F 78% 30.01 in 10.0 mi East 3.5 mph - N/A   Clear
11:55 PM 83.3 °F 90.2 °F 74.3 °F 74% 30.01 in 10.0 mi East 3.5 mph - N/A   Clear